TimeEST,TemperatureF,Dew PointF,Humidity,Sea Level PressureIn,VisibilityMPH,Wind Direction,Wind SpeedMPH,Gust SpeedMPH,PrecipitationIn,Events,Conditions,WindDirDegrees,DateUTC
12:51 AM,34.0,28.9,82,30.53,10.0,Calm,Calm,-,N/A,,Clear,0,2012-11-17 05:51:00
1:51 AM,33.1,28.0,82,30.53,10.0,NNW,3.5,-,N/A,,Clear,340,2012-11-17 06:51:00
2:51 AM,33.1,28.0,82,30.53,10.0,Calm,Calm,-,N/A,,Clear,0,2012-11-17 07:51:00
3:51 AM,32.0,28.0,85,30.54,9.0,North,3.5,-,N/A,,Clear,360,2012-11-17 08:51:00
4:51 AM,28.9,26.1,89,30.56,9.0,Calm,Calm,-,N/A,,Clear,0,2012-11-17 09:51:00
5:51 AM,28.9,27.0,92,30.57,7.0,Calm,Calm,-,N/A,,Clear,0,2012-11-17 10:51:00
6:51 AM,28.9,24.1,82,30.59,9.0,Calm,Calm,-,N/A,,Clear,0,2012-11-17 11:51:00
7:51 AM,30.0,26.1,85,30.61,7.0,Calm,Calm,-,N/A,,Partly Cloudy,0,2012-11-17 12:51:00
8:51 AM,34.0,28.9,82,30.63,10.0,Calm,Calm,-,N/A,,Partly Cloudy,0,2012-11-17 13:51:00
9:51 AM,39.9,28.9,65,30.63,10.0,East,4.6,-,N/A,,Partly Cloudy,90,2012-11-17 14:51:00
10:51 AM,44.6,28.4,53,30.58,10.0,Calm,Calm,-,N/A,,Partly Cloudy,0,2012-11-17 15:51:00
11:51 AM,48.9,28.9,46,30.61,10.0,ESE,4.6,-,N/A,,Partly Cloudy,120,2012-11-17 16:51:00
12:51 PM,51.1,28.0,41,30.60,10.0,East,5.8,-,N/A,,Partly Cloudy,90,2012-11-17 17:51:00
1:51 PM,53.1,28.0,38,30.58,10.0,NE,6.9,-,N/A,,Partly Cloudy,40,2012-11-17 18:51:00
2:51 PM,54.0,28.0,37,30.57,10.0,East,5.8,-,N/A,,Partly Cloudy,100,2012-11-17 19:51:00
5:51 PM,46.9,28.0,48,30.58,10.0,NNE,5.8,-,N/A,,Partly Cloudy,30,2012-11-17 22:51:00
6:51 PM,46.0,28.0,50,30.58,10.0,NE,5.8,-,N/A,,Partly Cloudy,50,2012-11-17 23:51:00
7:51 PM,46.0,28.0,50,30.58,10.0,ENE,5.8,-,N/A,,Partly Cloudy,70,2012-11-18 00:51:00
8:51 PM,42.1,27.0,55,30.59,10.0,East,5.8,-,N/A,,Clear,90,2012-11-18 01:51:00
9:51 PM,43.0,27.0,53,30.58,10.0,ENE,3.5,-,N/A,,Clear,60,2012-11-18 02:51:00
10:51 PM,39.0,27.0,62,30.57,10.0,Calm,Calm,-,N/A,,Clear,0,2012-11-18 03:51:00
11:51 PM,39.0,26.1,60,30.56,10.0,Calm,Calm,-,N/A,,Clear,0,2012-11-18 04:51:00